Location: Eastview
(35.0756°N, 88.5453°W)
Time: 08:11:37
(UTC+00:00)

Cosmos 1515 Rocket - Pass Details

Date: 22 November 2019
Orbit: 605 x 631 km, 82.5° (Epoch: 15 December)

Event Time Altitude Azimuth Distance (km) Brightness Sun altitude
Rises 23:12:12 0° 168° (SSE) 2,881 7.1 -6.0°
Reaches altitude 10° 23:14:31 10° 161° (SSE) 1,976 6.2 -6.4°
Maximum altitude 23:18:36 40° 92° (E) 909 4.0 -7.2°
Drops below altitude 10° 23:22:42 10° 23° (NNE) 1,974 5.8 -8.0°
Sets 23:25:00 0° 16° (NNE) 2,879 6.6 -8.5°
